Location: Kellogg
(38.0159°N, 90.0546°W)
Time: 16:24:42
(UTC+00:00)

Transit 2A Rocket - Pass Details

Date: 15 September 2024
Orbit: 583 x 908 km, 66.7° (Epoch: 11 October)

Event Time Altitude Azimuth Distance (km) Brightness Sun altitude
Exits shadow 06:17:12 11° 13° (NNE) 2,563 8.2 -48.9°
Drops below altitude 10° 06:17:19 10° 13° (NNE) 2,599 8.2 -48.9°
Sets 06:20:04 0° 22° (NNE) 3,541 9.1 -48.8°
